Hourly Data Report for July 17, 2004

SHERBROOKE A
QUEBEC

45°26'00.000" N
71°41'00.000" W
241.40 m
7028124
71610
YSC

Download Data

Hourly Data (July 2004)
Hourly Data Report for July 17, 2004
TIME
LST
Temp Definition
°C
Dew Point Definition
°C
Rel Hum Definition
%
Precip. Amount Definition
mm

Wind Dir Definition
10's deg

Wind Spd Definition
km/h
Visibility Definition
km
Stn Press Definition
kPa
Hmdx Definition


Wind Chill Definition


Weather Definition


00:00 16.4 16.1 98     0 1.1 97.72      
01:00 16.5 16.2 98     0 8.0 97.74      
02:00 16.6 16.3 98     0 1.1 97.78      
03:00 17.4 17.0 97   25 6 4.8 97.84      
04:00 17.3 16.9 97   23 6 6.4 97.88      
05:00 17.3 16.8 97   27 7 9.7 97.97      
06:00 17.5 17.0 97   27 9 8.0 98.03      
07:00 17.7 17.1 96   26 6 12.9 98.07     Mostly Cloudy
08:00 19.1 17.3 89   27 9 16.1 98.12     Mostly Cloudy
09:00 20.4 17.8 85   26 7 19.3 98.14 26   Mostly Cloudy
10:00 20.6 17.2 81   26 7 24.1 98.21 26   Mostly Cloudy
11:00 22.6 17.5 73   25 7 24.1 98.18 28   Mostly Cloudy
12:00 23.9 18.1 70   27 7 24.1 98.21 30   Mostly Cloudy
13:00 24.4 17.1 64   26 15 19.3 98.19 30   Cloudy
14:00 25.5 17.5 61   31 11 24.1 98.18 31   Cloudy
15:00 25.4 18.3 65   28 13 24.1 98.16 32   Mostly Cloudy
16:00 26.0 18.7 64   31 13 24.1 98.20 33   Mostly Cloudy
17:00 25.4 18.2 64   29 19 15.0 98.26 32    
18:00 24.7 18.1 67   30 15 15.0 98.30 31    
19:00 21.6 18.1 80     0 15.0 98.35 28    
20:00 18.4 16.8 90     0 15.0 98.41      
21:00 17.4 16.6 95   30 6 15.0 98.46      
22:00 16.3 15.4 94   23 4 15.0 98.53      
23:00 15.5 14.8 96     0 11.3 98.58      

Notes on Data Quality.

Legend

  • E = Estimated
  • M = Missing
  • NA = Not Available*
  • [empty] = Indicates an unobserved value
Date modified: